SL-14 R/B

Satellite information

Favourite Embed

Satellite Type and Status

ROCKET BODYIN ORBIT

Key statistics

Satellite SL-14 R/B at a glance.

Uptime

13857

Days in orbit

Revolutions

≈ 14.9

Per day

Orbit

LEO

Low Earth Orbit

Inclination

82.5

Latest

Satellite identification and parameters

Extended collection of information and parameters for SL-14 R/B.

Object identification

Identified? True

Debris? False

Object name: SL-14 R/B

International designator: 1988-001B

Object number (NORAD): 18749

Object ID (CCSDS): 18749

Country: COMMONWEALTH OF INDEPENDENT STATES (CIS)

Current information (Y/N): Y

RCS size: LARGE

Orbital parameters

Period: 96.942 minutes

Inclination: 82.5133 deg

SMA: 6990.388 km

Apoapsis: 625.23 km

Periapsis: 599.277 km

RAAN: 276.2869 deg

Eccentricy: 0.0018564

Argument of periapsis: 158.1489 deg

Mean anomaly: 202.0524 deg

Mean motion: 14.85425226 rev/day

Mean motion (dot): 0.00000727 rev/day2

B* drag term: 0.000081309656 1/REarth

Two-line elements (TLE)

Creation date: Dec. 14, 2025, 3:07 a.m.

Reference frame: TEME

Reference center: EARTH

Epoch: Dec. 13, 2025, 3:42 p.m. UTC

TLE line 0: 0 SL-14 R/B

TLE line 1: 1 18749U 88001B 25347.65433794 .00000727 00000-0 81310-4 0 9991

TLE line 2: 2 18749 82.5133 276.2869 0018564 158.1489 202.0524 14.85425226 29255

Live tracking on map

Real-time ground track for satellite SL-14 R/B.

In-orbit conjunctions

A list of the most updated potential collisions computed for object SL-14 R/B.

Target Orbit TCA Probability of collision Miss distance Type
COSMOS 2251 DEB LEO 2025-10-16 17:57:39 0.0001026889 976.0 (m) DEBRIS
IRIDIUM 33 DEB LEO 2025-09-18 19:33:37 0.0001533727 103.0 (m) DEBRIS
CZ-6A DEB LEO 2025-07-14 11:41:09 0.0001121619 184.0 (m) DEBRIS
DELTA 1 DEB SSO 2025-01-24 08:31:45 0.0001633374 63.0 (m) DEBRIS

Associated space launch

Tselina-D satellites provided detailed observation of radio sources detected by the smaller Tselina-O satellites as part of the Tselina ELINT system.

SL-14 R/B was lifted into orbit during the mission ‘Tsiklon-3 | Tselina-D 63’, on board a Tsiklon-3 space rocket.

The launch took place on Jan. 6, 1988, 7:41 a.m. from 32/2.

For more information about the launch, click the button.

Launch to space Tsiklon-3 | Tselina-D 63
Tsiklon-3 | Tselina-D 63

Agency: N/A

Status: Launch Successful

Launch date: Jan. 6, 1988, 7:41 a.m. UTC

Rocket: Tsiklon-3

Launch pad: 32/2

Location: Plesetsk Cosmodrome, Russian Federation

...

Latest news about this satellite

There are no fresh news available about this satellite. Check back as we update our databases every day.


Newsletter sign-up

Weekly statistics, charts and insights to help you stay on top of the space industry.